Wind_Speed
27 27 28 33 34 31 25 21 20 18 17 16 15 13 11 13 10 11 11 13 13 13 14 13 12 11 10 11
25 26 30 33 32 28 22 19 17 16 15 15 12 12 11 10 12 14 14 14 14 13 12 11 12 12 12 8
24 28 31 32 29 25 20 17 15 14 12 14 13 11 10 9 10 11 11 11 11 11 11 10 11 12 9 8
27 29 30 29 26 22 19 15 12 11 11 11 11 9 9 10 10 9 9 10 10 10 11 11 11 9 8 10
26 28 28 26 23 19 17 15 12 10 10 12 11 11 10 10 10 10 9 10 10 9 14 15 16 14 11 10
24 25 26 24 23 19 17 13 10 12 8 11 10 11 10 10 10 10 10 11 12 16 17 15 12 9 9 9
22 23 23 20 17 17 13 11 8 12 9 8 8 9 9 10 10 11 12 12 15 14 12 11 10 11 10 10
20 22 20 18 14 15 7 9 9 8 10 10 10 11 11 10 11 12 12 12 15 14 12 13 10 8 10 9
18 18 17 15 12 13 6 7 12 12 11 10 9 10 10 11 12 12 10 11 9 8 9 12 10 10 10 11
17 16 14 13 11 4 3 6 7 10 11 13 13 13 12 12 11 11 13 16 14 13 14 12 10 11 11 14
14 13 13 12 5 4 4 4 6 7 8 9 10 11 11 11 9 5 9 11 13 13 11 10 9 8 6 4
12 11 11 12 5 4 6 4 4 6 9 9 9 11 12 12 12 11 8 6 5 11 9 11 6 6 6 5
11 11 11 8 4 4 6 5 5 8 9 10 9 6 7 11 10 9 7 4 5 7 8 8 6 4 4 5
10 11 12 11 9 9 7 6 5 5 5 5 6 4 5 5 5 8 7 5 4 7 10 9 10 10 6 3
11 12 11 14 14 14 12 7 8 9 7 5 7 6 6 5 6 6 7 5 6 5 7 8 9 8 7 6
9 10 12 11 10 9 9 11 10 10 9 6 6 7 8 6 4 5 6 7 5 6 11 12 13 13 14 11
5 5 6 7 8 9 8 6 6 5 6 7 5 6 7 5 7 7 4 3 4 4 5 7 10 12 13 15
Wind_Direction
158 168 165 163 165 168 172 176 178 185 192 193 196 196 215 216 226 231 238 244 253 260 268 270 263 263 269 275
160 164 158 160 163 166 170 174 178 184 195 203 206 217 228 235 237 239 246 251 255 255 252 256 266 272 279 261
161 155 153 157 161 164 167 171 178 187 199 208 212 220 231 230 229 229 235 240 244 250 257 266 277 272 267 257
149 148 152 157 161 164 167 170 179 186 207 210 210 218 218 214 216 222 231 243 254 262 266 267 269 257 267 272
141 147 153 158 160 163 168 174 184 189 200 201 205 214 217 222 225 233 242 252 260 251 267 272 272 272 265 262
141 149 155 159 164 169 172 182 186 195 196 200 209 216 221 230 238 246 252 261 260 269 273 272 267 261 270 274
143 148 155 160 166 169 172 184 187 204 209 205 215 224 231 239 247 255 260 260 267 270 266 261 261 273 269 271
149 154 159 162 165 169 167 200 207 204 216 225 240 238 243 250 258 260 264 264 262 256 256 259 262 271 272 262
155 159 163 167 163 164 205 210 213 221 226 225 238 243 253 261 260 262 252 247 248 246 247 249 258 254 272 278
165 169 171 173 168 183 215 201 197 219 235 242 247 254 259 259 257 254 247 249 252 250 248 254 254 271 286 291
175 178 179 172 165 237 207 218 222 231 237 245 251 254 255 252 245 239 242 250 248 246 241 249 261 262 287 261
189 190 187 179 223 235 217 241 237 243 238 250 263 258 258 258 249 239 248 224 243 230 239 226 235 244 227 291
193 195 190 202 226 236 246 256 259 249 251 251 249 262 262 250 248 236 207 221 247 237 230 226 230 240 227 242
204 204 206 221 229 241 252 257 233 236 235 257 233 233 251 255 242 225 220 243 255 248 242 246 238 237 248 295
217 218 223 236 248 252 255 254 243 241 242 251 238 243 253 260 241 228 230 235 240 260 237 232 237 239 244 242
204 223 234 244 252 256 257 251 250 250 245 244 257 248 251 248 262 245 239 253 261 245 246 262 253 252 250 248
176 221 239 248 247 252 247 240 234 246 258 256 252 258 261 269 263 256 255 247 248 278 276 265 261 255 261 264
Height
3124 3130 3135 3141 3148 3155 3161 3166 3170 3173 3176 3180 3182 3183 3185 3186 3187 3189 3190 3192 3193 3194 3194 3194 3194 3194 3195 3193
3127 3132 3137 3143 3151 3157 3162 3167 3171 3174 3176 3178 3180 3182 3183 3185 3186 3187 3189 3189 3190 3191 3191 3192 3192 3192 3192 3191
3131 3135 3140 3146 3153 3159 3164 3168 3171 3174 3176 3177 3179 3180 3182 3183 3184 3185 3186 3187 3188 3189 3190 3190 3190 3189 3190 3188
3133 3138 3143 3149 3155 3160 3165 3168 3171 3176 3176 3177 3178 3179 3181 3182 3183 3184 3185 3186 3186 3186 3187 3187 3188 3187 3186 3184
3137 3141 3147 3153 3160 3164 3166 3169 3171 3173 3174 3176 3177 3178 3179 3180 3181 3182 3183 3183 3185 3184 3183 3183 3182 3182 3181 3181
3141 3145 3150 3155 3160 3164 3166 3168 3170 3172 3173 3174 3176 3177 3178 3180 3180 3180 3181 3182 3181 3180 3179 3179 3178 3178 3178 3178
3144 3149 3153 3158 3161 3163 3167 3169 3170 3171 3173 3175 3175 3175 3177 3177 3177 3178 3178 3178 3177 3176 3176 3176 3176 3175 3175 3174
3150 3151 3155 3158 3161 3164 3167 3170 3169 3170 3171 3172 3173 3173 3174 3176 3175 3175 3175 3174 3173 3173 3173 3173 3174 3174 3171 3170
3150 3154 3157 3159 3162 3165 3166 3169 3167 3168 3169 3171 3171 3171 3171 3171 3171 3171 3173 3171 3170 3170 3171 3171 3171 3170 3168 3168
3153 3156 3158 3160 3163 3167 3164 3164 3164 3165 3167 3167 3168 3168 3168 3169 3168 3168 3168 3167 3167 3168 3168 3168 3167 3167 3166 3164
3154 3156 3158 3161 3166 3163 3164 3164 3163 3164 3165 3165 3165 3165 3165 3165 3166 3167 3165 3165 3164 3164 3165 3165 3165 3165 3166 3163
3155 3157 3159 3163 3163 3161 3161 3162 3162 3162 3163 3163 3163 3163 3163 3163 3163 3163 3163 3164 3164 3162 3162 3163 3163 3163 3164 3163
3154 3156 3159 3161 3159 3159 3160 3161 3161 3161 3161 3161 3162 3161 3160 3160 3160 3160 3163 3161 3160 3159 3159 3160 3162 3161 3162 3161
3153 3155 3157 3157 3157 3158 3159 3159 3160 3160 3160 3159 3160 3159 3158 3158 3157 3157 3158 3158 3159 3157 3157 3158 3159 3158 3159 3159
3151 3154 3155 3155 3155 3156 3157 3158 3157 3157 3157 3157 3157 3157 3157 3156 3155 3155 3156 3157 3157 3157 3156 3155 3155 3156 3155 3155
3151 3151 3151 3152 3153 3153 3154 3154 3155 3155 3155 3155 3155 3155 3154 3154 3154 3154 3155 3155 3154 3154 3153 3152 3151 3151 3151 3151
3149 3149 3150 3150 3150 3151 3151 3151 3152 3152 3153 3153 3154 3152 3152 3153 3153 3153 3153 3153 3153 3152 3148 3150 3148 3147 3146 3146